Weather in Rivera

Uruguay     30°54′09″S   55°32′00″W
temp.,
°C
wind,
m/s
gust,
m/s
humid.,
%
clouds,
%
prec.,
mm/h
press.,
hPa
HPBL,
m
11 may, tue
tue1100:00+12s41081100 0.0 1021447
03:00+11s41190100 0.0 1021510
06:00+9s3982100 0.0 1021381
09:00+10s4872100 0.0 1023360
12:00+15sse454697 0.0 10221041
15:00+17s45404 0.0 10201299
18:00+11s225524 0.0 102033
21:00+9s366292 0.0 1022118
12 may, wed
wed1200:00+7s247596 0.0 102270
03:00+5ssw23854 0.0 102242
06:00+4ssw23940 0.0 102354
09:00+9s22760 0.0 1024183
12:00+15se23500 0.0 1022810
15:00+18s23390 0.0 10211207
18:00+12sse11630 0.0 102110
21:00+9se11730 0.0 102310
13 may, thu
thu1300:00+8ene11800 0.0 102310
03:00+7ne11850 0.0 102210
06:00+6ne11860 0.0 102310
09:00+10ene12680 0.0 1024122
12:00+17ene22435 0.0 1024584
15:00+19e223718 0.0 1022796
18:00+13ese115614 0.0 102211
21:00+10se22655 0.0 102413
14 may, fri
fri1400:00+8e11755 0.0 102411
03:00+7e1280100 0.0 102312
06:00+6e228121 0.0 102313
09:00+10ene2465100 0.0 1024147
12:00+17ene234699 0.0 1023545
15:00+19e334097 0.0 1020725
18:00+14ese225794 0.0 102011
21:00+10ese23695 0.0 102130
15 may, sat
sat1500:00+8e22750 0.0 102112
03:00+7e11710 0.0 102110
06:00+7ese11780 0.0 102010
09:00+11ene12682 0.0 1021131
12:00+19e11490 0.0 1021563
15:00+21ese12430 0.0 10191117
18:00+14ese22670 0.0 101911
21:00+11sse22730 0.0 102013